Location: Unspecified
(0.0000°N, 0.0000°E)
Time: 11:40:56
(UTC+00:00)

deb Explorer IX - All Passes

Search period start: 24 July 2024 00:00
Search period end: 03 August 2024 00:00
Orbit: 509 x 877 km, 38.7° (Epoch: 23 July)

Date Brightness Start Highest point End Pass type
(mag) Time Alt. Az. Time Alt. Az. Time Alt. Az.
24 Jul - 01:27:58 10° N 01:30:15 14° NE 01:32:25 10° ENE night (unlit)
24 Jul - 03:10:04 10° WNW 03:14:14 56° SW 03:18:08 10° SE night (unlit)
24 Jul - 13:44:49 10° SSW 13:49:44 35° SE 13:55:00 10° ENE daylight
24 Jul - 15:28:38 10° WSW 15:33:54 37° NW 15:39:25 10° NNE daylight
25 Jul - 02:07:03 10° NW 02:11:27 57° NE 02:15:27 10° ESE night (unlit)
25 Jul - 03:53:27 10° WSW 03:55:11 12° SW 03:56:52 10° SSW night (unlit)
25 Jul - 12:43:17 10° S 12:46:40 17° SE 12:50:15 10° E daylight
25 Jul - 14:25:15 10° SW 14:30:43 72° NW 14:36:39 10° NE daylight
25 Jul - 16:12:53 10° WNW 16:15:15 12° NW 16:17:39 10° NNW daylight
26 Jul - 01:04:35 10° NNW 01:08:28 25° NE 01:12:03 10° E night (unlit)
26 Jul - 02:48:30 10° WNW 02:52:19 29° SW 02:55:52 10° SSE night (unlit)
26 Jul - 13:22:26 10° SW 13:27:35 57° SE 13:33:14 10° ENE daylight
26 Jul - 15:07:28 10° W 15:11:51 23° NW 15:16:27 10° NNE daylight
27 Jul - 00:03:02 10° N 00:05:16 13° NE 00:07:24 10° ENE night (unlit)
27 Jul - 01:44:48 10° NW 01:49:26 73° SW 01:53:36 10° SE night (unlit)
27 Jul - 12:20:13 10° SSW 12:24:29 27° SE 12:29:07 10° E daylight
27 Jul - 14:03:28 10° WSW 14:08:31 43° NW 14:14:01 10° NNE daylight
28 Jul - 00:41:41 10° NW 00:46:24 48° NE 00:50:38 10° ESE night (unlit)
28 Jul - 02:27:17 10° W 02:30:09 17° SW 02:32:53 10° S night (unlit)
28 Jul - 11:19:14 10° SSE 11:21:21 13° SE 11:23:31 10° ESE daylight
28 Jul - 13:00:10 10° SW 13:05:15 85° NW 13:10:55 10° NE daylight
28 Jul - 14:46:56 10° WNW 14:49:42 14° NW 14:52:33 10° N daylight
28 Jul - 23:39:06 10° NNW 23:43:09 23° NE 23:46:53 10° E night (unlit)
29 Jul - 01:22:41 10° WNW 01:27:08 38° SW 01:31:10 10° SSE night (unlit)
29 Jul - 11:57:26 10° SSW 12:02:03 45° SE 12:07:11 10° ENE daylight
29 Jul - 13:41:54 10° W 13:46:11 25° NW 13:50:49 10° NNE daylight
29 Jul - 22:37:34 10° N 22:39:43 12° NE 22:41:46 10° ENE night (unlit)
30 Jul - 00:18:57 10° NW 00:24:02 89° NE 00:28:33 10° SE night (unlit)
30 Jul - 10:55:25 10° S 10:58:53 20° SE 11:02:37 10° E daylight
30 Jul - 12:38:00 10° WSW 12:42:46 49° NW 12:48:03 10° NE daylight
30 Jul - 23:15:44 10° NNW 23:20:45 41° NE 23:25:15 10° ESE night (unlit)
31 Jul - 01:00:46 10° W 01:04:36 23° SW 01:08:09 10° S night (unlit)
31 Jul - 11:34:47 10° SW 11:39:26 78° SE 11:44:41 10° NE daylight
31 Jul - 13:20:50 10° WNW 13:23:44 15° NW 13:26:46 10° N daylight
31 Jul - 22:13:05 10° NNW 22:17:15 22° NE 22:21:07 10° E night (unlit)
31 Jul - 23:56:18 10° WNW 00:01:23 51° SW 00:05:55 10° SE night (unlit)
01 Aug - 10:32:08 10° SSW 10:36:11 34° SE 10:40:39 10° ENE daylight
01 Aug - 12:16:03 10° W 12:20:08 28° NW 12:24:39 10° NNE daylight
01 Aug - 21:11:45 10° NNE 21:13:33 11° NE 21:15:18 10° NE visible
01 Aug - 22:52:32 10° NW 22:58:02 74° NE 23:02:56 10° SE night (unlit)
02 Aug - 00:39:18 10° WSW 00:41:52 14° SW 00:44:18 10° S night (unlit)
02 Aug - 09:30:27 10° S 09:32:55 15° SE 09:35:31 10° ESE daylight
02 Aug - 11:12:14 10° WSW 11:16:40 58° NW 11:21:39 10° NE daylight
02 Aug - 21:49:17 10° NNW 21:54:29 36° NE 21:59:14 10° ESE visible
02 Aug - 23:33:48 10° WNW 23:38:29 30° SW 23:42:46 10° SSE night (unlit)
